• Processing (Info)

  • MPEC 2014-K92 : 2014 KQ84

    The following Minor Planet Electronic Circular may be linked-to from your own Web pages, but must not otherwise be redistributed electronically.

    A form allowing access to any MPEC is at the bottom of this page.


    Read MPEC 2014-K91 Read MPEC 2014-K93


    M.P.E.C. 2014-K92                                Issued 2014 May 31, 14:17 UT
    
         The Minor Planet Electronic Circulars contain information on unusual
             minor planets and routine data on comets.  They are published
       on behalf of Commission 20 of the International Astronomical Union by the
              Minor Planet Center, Smithsonian Astrophysical Observatory,
                              Cambridge, MA 02138, U.S.A.
    
                 Prepared using the Tamkin Foundation Computer Network
    
                                  MPC@CFA.HARVARD.EDU
                URL https://www.minorplanetcenter.net/    ISSN 1523-6714
    
                                       2014 KQ84
    
    Observations:
         K14K84Q* C2014 05 30.24156 14 30 04.49 -19 02 17.2          19.8 VqEK092G96
         K14K84Q  C2014 05 30.24870 14 30 10.49 -19 02 34.8          19.2 VqEK092G96
         K14K84Q  C2014 05 30.25583 14 30 16.55 -19 02 52.6          19.7 VqEK092G96
         K14K84Q  C2014 05 30.26297 14 30 22.58 -19 03 10.1          19.5 VqEK092G96
         K14K84Q  C2014 05 30.29001 14 30 45.65 -19 04 14.6          19.3 VqEK092G96
         K14K84Q  C2014 05 30.29039 14 30 45.97 -19 04 15.5          19.4 VqEK092G96
         K14K84Q  C2014 05 30.29077 14 30 46.32 -19 04 16.7          20.0 VqEK092G96
         K14K84Q  C2014 05 30.29116 14 30 46.65 -19 04 17.8          19.6 VqEK092G96
         K14K84Q  C2014 05 30.32084 14 31 12.30 -19 05 25.3          19.3 VqEK092G96
         K14K84Q  C2014 05 30.32123 14 31 12.66 -19 05 26.3          19.2 VqEK092G96
         K14K84Q  C2014 05 30.32161 14 31 12.99 -19 05 27.0          19.6 VqEK092G96
         K14K84Q  C2014 05 30.32200 14 31 13.32 -19 05 28.4          19.8 VqEK092G96
         K14K84Q KC2014 05 30.36511 14 32 15.76 -19 00 32.3          19.5 RoEK092474
         K14K84Q KC2014 05 30.36617 14 32 16.72 -19 00 35.3          19.3 RoEK092474
         K14K84Q KC2014 05 30.36724 14 32 17.68 -19 00 38.4          19.9 RoEK092474
         K14K84Q KC2014 05 30.37044 14 32 20.49 -19 00 47.0          19.9 RoEK092474
         K14K84Q KC2014 05 30.37150 14 32 21.43 -19 00 50.5          20.1 RoEK092474
         K14K84Q KC2014 05 30.70292914 38 02.35 -19 15 21.7          20.7 VqEK092K92
         K14K84Q KC2014 05 30.70550114 38 04.76 -19 15 29.7          20.2 VqEK092K92
         K14K84Q KC2014 05 30.70806914 38 07.18 -19 15 37.5          20.5 VqEK092K92
         K14K84Q KC2014 05 30.71065014 38 09.63 -19 15 45.4          21.2 VqEK092K92
         K14K84Q KC2014 05 30.71326314 38 12.10 -19 15 53.0          20.1 VqEK092K92
         K14K84Q KC2014 05 30.71586414 38 14.54 -19 16 01.1          19.8 VqEK092K92
         K14K84Q KC2014 05 31.14524 14 45 28.01 -19 40 43.6          19.5 RqEK092H36
         K14K84Q KC2014 05 31.15494 14 45 37.15 -19 41 09.1          19.7 RqEK092H36
         K14K84Q KC2014 05 31.16381 14 45 45.49 -19 41 31.9          19.5 RqEK092H36
         K14K84Q KC2014 05 31.17660614 45 54.80 -19 42 07.0          19.8 VuEK092H21
         K14K84Q KC2014 05 31.17937714 45 57.35 -19 42 13.5          20.1 VuEK092H21
         K14K84Q KC2014 05 31.18196314 45 59.76 -19 42 19.4          20.2 VuEK092H21
         K14K84Q KC2014 05 31.44296 14 50 42.34 -19 45 18.9          19.1 RoEK092474
         K14K84Q KC2014 05 31.44415 14 50 43.52 -19 45 21.6          19.3 RoEK092474
         K14K84Q KC2014 05 31.44862 14 50 47.85 -19 45 32.5          19.9 RoEK092474
         K14K84Q KC2014 05 31.44982 14 50 49.00 -19 45 35.4          19.6 RoEK092474
         K14K84Q KC2014 05 31.45102 14 50 50.18 -19 45 38.2          19.5 RoEK092474
    
    Observer details:
    474 Mount John Observatory, Lake Tekapo.  Observers A. C. Gilmore,
        P. M. Kilmartin.  Measurer P. M. Kilmartin.  1.0-m f/7.7 reflector + CCD.
    G96 Mt. Lemmon Survey.  Observers A. R. Gibbs, R. J. Sanders.  Measurers
        E. J. Christensen, A. R. Gibbs, A. D. Grauer, R. E. Hill, J. A. Johnson,
        R. A. Kowalski, S. M. Larson, R. J. Sanders, F. C. Shelly.  1.5-m
        reflector + CCD.
    H21 Astronomical Research Observatory, Westfield.  Observer R. Holmes.
        Measurers T. Linder, L. Buzzi, S. Foglia, T. Vorobjov.  0.61-m f/4.5
        astrograph + CCD.
    H36 Sandlot Observatory, Scranton.  Observer G. Hug.  0.56-m reflector + CCD.
    K92 Sutherland-LCOGT B.  Observers E. J. Christensen, S. M. Larson, T. Lister.
        Measurer T. Lister.  1.0-m f/8 Ritchey-Chretien + CCD.
    
    Orbital elements:
    2014 KQ84                                                Earth MOID = 0.0220 AU
    Epoch 2014 May 23.0 TT = JDT 2456800.5                  MPC
    M 354.24205              (2000.0)            P               Q
    n   0.59278774     Peri.  356.73094     -0.33369081     +0.94255131
    a   1.4034703      Node   253.77567     -0.86452229     -0.31263424
    e   0.2616517      Incl.    0.93877     -0.37583460     -0.11771518
    P   1.66           H   26.7           G   0.15           U   6
    Residuals in seconds of arc
    140530 G96  0.1+  0.2-    140530 474  0.1-  0.2+    140531 H36  0.1+  0.0
    140530 G96  0.3-  0.1+    140530 474  0.2+  0.1+    140531 H36  0.4+  0.1+
    140530 G96  0.1+  0.0     140530 474  0.3+  0.0     140531 H21  0.1+  0.2-
    140530 G96  0.2-  0.1+    140530 474  0.0   0.3+    140531 H21  0.6-  0.1+
    140530 G96  0.1-  0.2+    140530 474  0.0   0.2-    140531 H21  0.8-  0.4+
    140530 G96  0.2-  0.2+    140530 K92  0.2+  0.0     140531 474  0.1-  0.1-
    140530 G96  0.1+  0.1-    140530 K92  0.1-  0.2-    140531 474  0.3+  0.1+
    140530 G96  0.1+  0.3-    140530 K92  0.1-  0.2-    140531 474  0.2+  0.0
    140530 G96  0.2-  0.1+    140530 K92  0.2+  0.3-    140531 474  0.0   0.1-
    140530 G96  0.1+  0.0     140530 K92  0.3+  0.1-    140531 474  0.2+  0.0
    140530 G96  0.0   0.2+    140530 K92  0.3+  0.3-
    140530 G96  0.1-  0.4-    140531 H36  0.5-  0.3+
    
    Ephemeris:
    2014 KQ84                a,e,i = 1.40, 0.26, 1                   q = 1.0362
    Date    TT    R. A. (2000) Decl.     Delta      r     Elong.  Phase     V
    2014 05 01    12 05 31.6 -08 54 13   0.07759 1.0710   143.8    33.8    22.7
    ...
    2014 05 16    12 31 18.0 -11 17 56   0.04803 1.0462   136.3    41.9    21.8
    ...
    2014 05 24    13 15 57.8 -14 43 46   0.03408 1.0390   140.1    38.7    21.0
    ...
    2014 05 30    14 26 14.1 -18 47 23   0.02585 1.0365   151.7    27.6    20.1
    2014 05 31    14 42 49.3 -19 29 45   0.02483 1.0363   154.8    24.7    19.9
    2014 06 01    15 00 58.1 -20 09 15   0.02395 1.0362   158.1    21.4    19.7
    ...
    2014 06 07    17 11 39.9 -21 18 18   0.02240 1.0372   176.8     3.1    18.8
    ...
    2014 06 15    19 27 47.0 -15 51 55   0.03008 1.0423   151.9    27.4    20.4
    ...
    2014 06 30    20 51 40.6 -09 39 28   0.05692 1.0635   144.6    33.6    22.0
    
    A. U. Tomatic                (C) Copyright 2014 MPC           M.P.E.C. 2014-K92
    

    Read MPEC 2014-K91 Read MPEC 2014-K93


    MPEC number:

    Enter an MPEC number in one of the following forms:

    • 1997-B01 (the full form)
    • J97B01 (the packed version of the full form)
    • B01 (the abbreviated form)